Weather History for Bloomington, IN

Change the Weather History Date:

Wednesday, December 11, 2013

  Actual Average Record
Temperature  
Mean Temperature 16 °F 33 °F  
Max Temperature 30 °F 41 °F 64 °F (1996)
Min Temperature 2 °F 25 °F 2 °F (2013)
Degree Days  
Heating Degree Days 49 32  
Month to date heating degree days 371 332  
Since 1 July heating degree days 1511 1388  
Cooling Degree Days 0 0  
Month to date cooling degree days 0 0  
Year to date cooling degree days 1006 927  
Moisture  
Dew Point 11 °F    
Average Humidity 77    
Maximum Humidity 92    
Minimum Humidity 62    
Precipitation  
Precipitation 0.00 in 0.11 in 1.32 in (2000)
Month to date precipitation 0.97 1.18  
Year to date precipitation 41.84 45.19  
Sea Level Pressure  
Sea Level Pressure 30.42 in    
Wind  
Wind Speed 5 mph (West)    
Max Wind Speed 16 mph    
Max Gust Speed 23 mph    
Visibility 9 miles    
Events      
T = Trace of Precipitation, MM = Missing Value Source: NWS Daily Summary

Daily Weather History Graph

Daily Weather History Graph

Search for Another Location

Airport:

Trip Planner

Search our weather history database for the weather conditions in past years. The results will help you decide how hot, cold, wet, or windy it might be!

Date:

Astronomy

Dec. 11, 2013 Rise Set
Actual Time 7:55 AM EST 5:23 PM EST
Civil Twilight 7:25 AM EST 5:53 PM EST
Nautical Twilight 6:52 AM EST 6:27 PM EST
Astronomical Twilight 6:19 AM EST 6:59 PM EST
Moon 1:55 PM EST (12/11) 2:18 AM EST (12/11)
Length of Visible Light 10h 27m
Length of Day
9h 28m
Waxing Gibbous, 71% of the Moon is Illuminated
Dec 11
Waxing Gibbous
Dec 17
Full
Dec 25
Last Quarter
Jan 1
New
Jan 7
First Quarter

Hourly Weather History & Observations

Time (EST) Temp. Windchill Dew Point Humidity Pressure Visibility Wind Dir Wind Speed Gust Speed Precip Events Conditions
12:53 AM 3.0 °F - -0.9 °F 84% 30.39 in 8.0 mi Calm Calm - N/A   Clear
1:53 AM 3.0 °F - -0.9 °F 84% 30.38 in 9.0 mi Calm Calm - N/A   Clear
2:53 AM 3.9 °F - -0.9 °F 80% 30.38 in 9.0 mi Calm Calm - N/A   Clear
3:53 AM 3.0 °F - -2.0 °F 80% 30.39 in 9.0 mi Calm Calm - N/A   Clear
4:53 AM 6.1 °F - 1.9 °F 83% 30.36 in 8.0 mi Calm Calm - N/A   Clear
5:53 AM 6.1 °F - 1.0 °F 80% 30.36 in 7.0 mi Calm Calm - N/A   Clear
6:53 AM 7.0 °F 0.1 °F 3.0 °F 84% 30.37 in 5.0 mi SE 3.5 mph - N/A   Clear
7:53 AM 5.0 °F -2.1 °F -0.0 °F 80% 30.38 in 5.0 mi SE 3.5 mph - N/A   Haze
8:53 AM 12.0 °F 4.1 °F 8.1 °F 84% 30.37 in 3.0 mi SSE 4.6 mph - N/A   Clear
9:53 AM 18.0 °F 11.1 °F 16.0 °F 92% 30.40 in 4.0 mi SW 4.6 mph - N/A   Clear
10:53 AM 23.0 °F 13.1 °F 19.0 °F 85% 30.39 in 8.0 mi SSW 9.2 mph - N/A   Clear
11:53 AM 28.9 °F 19.8 °F 21.0 °F 72% 30.35 in 10.0 mi SSW 10.4 mph - N/A   Clear
12:53 PM 30.0 °F 19.5 °F 21.0 °F 69% 30.36 in 10.0 mi West 13.8 mph - N/A   Partly Cloudy
1:53 PM 28.0 °F 18.1 °F 19.0 °F 69% 30.37 in 10.0 mi WNW 11.5 mph 20.7 mph N/A   Partly Cloudy
2:34 PM 28.9 °F 19.2 °F 19.0 °F 67% 30.34 in 10.0 mi WNW 11.5 mph - N/A   Mostly Cloudy
2:46 PM 28.0 °F 17.5 °F 18.0 °F 66% 30.34 in 10.0 mi West 12.7 mph 20.7 mph N/A   Scattered Clouds
2:53 PM 28.9 °F 19.2 °F 18.0 °F 64% 30.39 in 10.0 mi WNW 11.5 mph - N/A   Mostly Cloudy
3:53 PM 28.9 °F 20.4 °F 19.0 °F 67% 30.40 in 10.0 mi WNW 9.2 mph - N/A   Overcast
4:07 PM 28.9 °F 18.6 °F 19.0 °F 67% 30.37 in 10.0 mi WNW 12.7 mph - N/A   Overcast
4:27 PM 28.9 °F 20.4 °F 19.0 °F 67% 30.38 in 10.0 mi WNW 9.2 mph 18.4 mph N/A   Overcast
4:53 PM 28.0 °F 20.0 °F 17.1 °F 63% 30.44 in 10.0 mi NW 8.1 mph - N/A   Overcast
5:53 PM 24.1 °F 13.7 °F 14.0 °F 65% 30.48 in 10.0 mi NW 10.4 mph - N/A   Overcast
6:30 PM 23.0 °F 15.8 °F 12.9 °F 65% 30.46 in 10.0 mi NW 5.8 mph - N/A   Mostly Cloudy
6:43 PM 23.0 °F 18.4 °F 12.9 °F 65% 30.46 in 10.0 mi NW 3.5 mph - N/A   Mostly Cloudy
6:53 PM 23.0 °F 18.4 °F 12.9 °F 65% 30.51 in 10.0 mi North 3.5 mph - N/A   Overcast
7:53 PM 21.9 °F 12.5 °F 12.9 °F 68% 30.54 in 10.0 mi NW 8.1 mph - N/A   Overcast
8:50 PM 19.4 °F 10.4 °F 10.4 °F 68% 30.50 in 10.0 mi Variable 6.9 mph - N/A   Scattered Clouds
8:53 PM 19.0 °F 10.0 °F 9.0 °F 65% 30.55 in 10.0 mi Variable 6.9 mph - N/A   Partly Cloudy
9:53 PM 17.1 °F - 8.1 °F 68% 30.56 in 10.0 mi Calm Calm - N/A   Clear
10:53 PM 12.9 °F - 5.0 °F 71% 30.57 in 10.0 mi Calm Calm - N/A   Clear
11:53 PM 10.9 °F 4.7 °F 6.1 °F 81% 30.58 in 10.0 mi NW 3.5 mph - N/A   Clear